Hourly Data Report for October 29, 2016

All times are specified in Local Standard Time (LST). Add 1 hour to adjust for Daylight Saving Time where and when it is observed.

RESOLUTE BAY A
NUNAVUT

74°43'01.000" N
94°58'10.000" W
67.70 m
2403498
71924
YRB

Download Data

Hourly Data (October 2016)
Hourly Data Report for October 29, 2016
Temp Definition
°C
Dew Point Temp Definition
°C
Rel Hum Definition
%
Wind Dir Definition
10's deg

Wind Spd Definition
km/h
Visibility Definition
km
Stn Press Definition
kPa
Hmdx Definition


Wind Chill Definition


Weather Definition


TIME
00:00 Legend Double Dagger -15.4 -19.2 73 5 68 24.1 101.21   -31 Clear
01:00 Legend Double Dagger -15.8 -19.4 74 5 64 6.4 101.27   -31 Blowing Snow
02:00 Legend Double Dagger -15.8 -19.6 73 5 58 24.1 101.34   -30 Blowing Snow
03:00 Legend Double Dagger -16.1 -19.6 75 4 54 24.1 101.38   -30 Blowing Snow
04:00 Legend Double Dagger -14.4 -17.8 76 4 56 24.1 101.41   -28 Blowing Snow
05:00 Legend Double Dagger -13.9 -17.4 75 4 55 16.1 101.41   -28 Snow,Blowing Snow
06:00 Legend Double Dagger -14.3 -17.8 75 4 61 24.1 101.39   -29 Blowing Snow
07:00 Legend Double Dagger -14.7 -18.4 74 4 59 24.1 101.40   -29 Blowing Snow
08:00 Legend Double Dagger -14.9 -18.9 72 4 60 19.3 101.36   -29 Blowing Snow
09:00 Legend Double Dagger -15.2 -19.9 68 2 54 22.5 101.37   -29 Blowing Snow
10:00 Legend Double Dagger -15.1 -18.9 73 4 49 24.1 101.32   -29 Blowing Snow
11:00 Legend Double Dagger -14.9 -19.4 69 2 49 24.1 101.33   -28 Blowing Snow
12:00 Legend Double Dagger -15.7 -20.0 70 4 56 24.1 101.30   -30 Blowing Snow
13:00 Legend Double Dagger -15.7 -20.0 70 4 55 24.1 101.31   -30 Blowing Snow
14:00 Legend Double Dagger -17.7 -21.6 72 3 59 24.1 101.27   -33 Blowing Snow
15:00 Legend Double Dagger -16.6 -21.2 68 3 63 24.1 101.29   -32 Blowing Snow
16:00 Legend Double Dagger -16.5 -21.5 66 4 52 24.1 101.35   -31 Blowing Snow
17:00 Legend Double Dagger -16.1 -21.8 62 4 56 24.1 101.34   -31 Blowing Snow
18:00 Legend Double Dagger -17.1 -22.6 63 4 53 24.1 101.34   -32 Blowing Snow
19:00 Legend Double Dagger -18.2 -23.3 65 4 53 24.1 101.35   -33 Blowing Snow
20:00 Legend Double Dagger -17.2 -22.9 62 4 49 24.1 101.32   -31 Blowing Snow
21:00 Legend Double Dagger -17.7 -23.3 62 4 52 24.1 101.30   -32 Blowing Snow
22:00 Legend Double Dagger -17.5 -23.0 63 4 54 24.1 101.25   -32 Blowing Snow
23:00 Legend Double Dagger -17.4 -23.1 62 4 49 24.1 101.29   -32 Blowing Snow

Notes on Data Quality.

Legend

  • E = Estimated
  • M = Missing
  • NA = Not Available
  • ‡ = Partner data that is not subject to review by the National Climate Archives
Date modified: